This demonstration page uses our WeatherBlox Daily Observations layout. Learn more.

Left ArrowRight Arrow

40.92945, -100.16068

Hourly Observations for September 30, 2016

Temp ( °F °C ) Dew Point ( °F °C ) Humidity (%) Winds ( mph kmh ) Pressure ( in mb ) Visibility ( mi km ) Precip ( " mm )
12:15 am 00:15 Clear 50 9.8 43 6.2 79 79 SE 6 9 30.33 1027 10 16 N/A
12:35 am 00:35 Clear 48 8.7 42 5.7 82 82 SE 5 7 30.36 1028 10 16 N/A
12:55 am 00:55 Clear 46 7.7 41 4.9 83 83 N N/A 30.36 1028 10 16 N/A
1:15 am 01:15 Clear 44 6.8 40 4.6 86 86 N N/A 30.36 1028 10 16 N/A
1:35 am 01:35 Clear 45 7 41 5.1 88 88 ESE 3 6 30.36 1028 10 16 N/A
1:55 am 01:55 Clear 45 7.1 41 5.1 87 87 ESE 3 6 30.33 1027 10 16 N/A
2:15 am 02:15 Clear 44 6.5 40 4.7 88 88 N N/A 30.33 1027 10 16 N/A
2:35 am 02:35 Clear 43 6.2 40 4.7 90 90 ESE 5 7 30.39 1029 10 16 N/A
2:55 am 02:55 Clear 44 6.4 41 5 91 91 N N/A 30.33 1027 10 16 N/A
3:15 am 03:15 Clear 42 5.8 39 4.1 89 89 E 5 7 30.36 1028 10 16 N/A
3:35 am 03:35 Clear 43 6.2 40 4.7 90 90 N N/A 30.36 1028 10 16 N/A
3:55 am 03:55 Clear 43 6.2 40 4.7 90 90 E 3 6 30.36 1028 10 16 N/A
4:15 am 04:15 Clear 42 5.6 39 4.1 90 90 N N/A 30.36 1028 10 16 N/A
4:35 am 04:35 Clear 42 5.3 39 4.1 92 92 E 5 7 30.36 1028 10 16 N/A
4:55 am 04:55 Clear 42 5.5 40 4.2 91 91 ESE 3 6 30.36 1028 10 16 N/A
5:15 am 05:15 Clear 42 5.4 40 4.3 93 93 N N/A 30.36 1028 10 16 N/A
5:35 am 05:35 Clear 40 4.6 38 3.4 92 92 E 5 7 30.36 1028 10 16 N/A
5:55 am 05:55 Clear 41 5.2 40 4.2 93 93 E 3 6 30.36 1028 10 16 N/A
6:15 am 06:15 Clear 42 5.5 40 4.5 93 93 ESE 3 6 30.36 1028 10 16 N/A
6:35 am 06:35 Clear 42 5.3 40 4.3 93 93 N N/A 30.36 1028 10 16 N/A
6:55 am 06:55 Clear 40 4.7 39 3.7 93 93 N N/A 30.36 1028 10 16 N/A
7:15 am 07:15 Clear 40 4.6 38 3.6 93 93 N N/A 30.36 1028 10 16 N/A
7:35 am 07:35 Clear 40 4.3 38 3.4 94 94 E 3 6 30.36 1028 7 11 N/A
7:55 am 07:55 Sunny 40 4.7 39 3.8 94 94 E 5 7 30.36 1028 7 11 N/A
8:15 am 08:15 Sunny 42 5.6 41 4.8 95 95 E 5 7 30.33 1027 10 16 N/A
8:35 am 08:35 Sunny 46 7.6 44 6.7 94 94 E 5 7 30.30 1026 10 16 N/A
8:55 am 08:55 Sunny 48 8.9 45 7 88 88 SE 5 7 30.30 1026 10 16 N/A
9:15 am 09:15 Sunny 50 9.8 45 7.2 84 84 SE 5 7 30.27 1025 10 16 N/A
9:35 am 09:35 Sunny 52 11.3 47 8.1 81 81 SE 5 7 30.27 1025 10 16 N/A
9:55 am 09:55 Sunny 54 12 47 8.2 78 78 SE 6 9 30.27 1025 10 16 N/A
10:15 am 10:15 Sunny 56 13.3 48 8.7 74 74 SE 7 11 30.24 1024 10 16 N/A
10:35 am 10:35 Sunny 59 15 49 9.5 70 70 SSE 6 9 30.24 1024 10 16 N/A
10:55 am 10:55 Sunny 61 16.3 48 8.8 61 61 SSE 10 17 30.21 1023 10 16 N/A
11:15 am 11:15 Sunny 63 17.1 48 9.1 60 60 SSE 10 17 30.21 1023 10 16 N/A
11:35 am 11:35 Sunny 64 17.6 47 8.3 55 55 SE 12 19 30.21 1023 10 16 N/A
11:55 am 11:55 Sunny 65 18.4 47 8.4 52 52 SE 12 19 30.21 1023 10 16 N/A
12:15 pm 12:15 Sunny 67 19.2 48 8.7 51 51 SE 10 17 30.15 1021 10 16 N/A
12:35 pm 12:35 Sunny 67 19.3 47 8.1 48 48 SE 12 19 30.15 1021 10 16 N/A
12:55 pm 12:55 Sunny 67 19.2 46 7.7 47 47 SSE 9 15 30.15 1021 10 16 N/A
1:15 pm 13:15 Sunny 67 19.6 45 7.1 44 44 SSE 9 15 30.15 1021 10 16 N/A
1:35 pm 13:35 Sunny 70 20.9 44 6.9 40 40 SSE 10 17 30.12 1020 10 16 N/A
1:55 pm 13:55 Sunny 70 21 44 6.7 40 40 S 12 19 30.12 1020 10 16 N/A
2:15 pm 14:15 Sunny 68 20.2 44 6.5 41 41 SE 10 17 30.12 1020 10 16 N/A
2:35 pm 14:35 Sunny 68 20.2 43 6.3 41 41 SSE 9 15 30.12 1020 10 16 N/A
2:55 pm 14:55 Sunny 69 20.4 44 6.6 41 41 SE 9 15 30.09 1019 10 16 N/A
3:15 pm 15:15 Sunny 70 21.1 44 6.5 39 39 SSE 8 13 30.09 1019 10 16 N/A
3:35 pm 15:35 Sunny 68 20.2 44 6.8 42 42 SE 9 15 30.09 1019 10 16 N/A
3:55 pm 15:55 Sunny 69 20.7 45 7.1 41 41 SE 10 17 30.09 1019 10 16 N/A
4:15 pm 16:15 Sunny 67 19.7 46 7.5 45 45 SE 8 13 30.09 1019 10 16 N/A
4:35 pm 16:35 Sunny 68 20.2 46 7.9 45 45 ESE 8 13 30.09 1019 10 16 N/A
4:55 pm 16:55 Sunny 68 20.2 46 7.9 45 45 E 9 15 30.06 1018 10 16 N/A
5:15 pm 17:15 Sunny 68 20.2 45 7.2 43 43 SSE 9 15 30.06 1018 10 16 N/A
5:35 pm 17:35 Sunny 68 20 45 7.3 44 44 SSE 10 17 30.06 1018 10 16 N/A
5:55 pm 17:55 Sunny 68 19.9 45 7.1 44 44 SSE 8 13 30.06 1018 10 16 N/A
6:15 pm 18:15 Sunny 67 19.4 46 7.5 46 46 SE 6 9 30.06 1018 10 16 N/A
6:35 pm 18:35 Sunny 66 18.9 46 7.8 49 49 ESE 5 7 30.06 1018 10 16 N/A
7:15 pm 19:15 Sunny 65 18.1 46 8 52 52 SE 5 7 30.06 1018 10 16 N/A
7:35 pm 19:35 Clear 63 17.4 46 8 54 54 SE 5 7 30.09 1019 10 16 N/A
7:55 pm 19:55 Clear 62 16.5 47 8.1 58 58 SSE 5 7 30.09 1019 10 16 N/A
8:15 pm 20:15 Clear 61 16 47 8.2 60 60 SSE 3 6 30.09 1019 10 16 N/A
8:35 pm 20:35 Clear 59 15 47 8.3 64 64 SSE 5 7 30.09 1019 7 11 N/A
8:55 pm 20:55 Clear 59 14.9 47 8.1 64 64 SSE 6 9 30.09 1019 7 11 N/A
9:15 pm 21:15 Clear 59 14.8 46 7.7 63 63 SSE 7 11 30.09 1019 10 16 N/A
9:35 pm 21:35 Clear 59 14.9 46 7.6 62 62 SE 7 11 30.09 1019 10 16 N/A
9:55 pm 21:55 Clear 58 14.2 46 7.5 64 64 SSE 5 7 30.15 1021 10 16 N/A
10:15 pm 22:15 Clear 56 13.3 46 7.5 68 68 SSE 5 7 30.15 1021 10 16 N/A
10:35 pm 22:35 Clear 55 12.6 45 7.4 71 71 N N/A 30.12 1020 10 16 N/A
10:55 pm 22:55 Clear 55 12.5 46 7.5 72 72 E 3 6 30.12 1020 10 16 N/A
11:15 pm 23:15 Clear 52 11 46 7.7 80 80 N N/A 30.15 1021 10 16 N/A
11:35 pm 23:35 Clear 54 12 46 7.8 76 76 N N/A 30.12 1020 10 16 N/A
11:55 pm 23:55 Clear 53 11.6 46 7.8 78 78 ESE 3 6 30.12 1020 10 16 N/A

Powered by AerisWeather